Tracking 20040 objects as of 19-Nov-2019
Live streaming from Space Station
objects crossing your sky now

ARIANE 40 R/B

Track ARIANE 40 R/B now!
10-day predictions


NORAD ID: 25979
Int'l Code: 1999-064C
Perigee: 583.3 km
Apogee: 590.5 km
Inclination: 98.1 °
Period: 96.3 minutes
Semi major axis: 6957 km
RCS: 12.2393 m2 (large)
Launch date: December 3, 1999
Source: France (FR)
Launch site: FRENCH GUIANA (FRGUI)

Note: This is a ROCKET BODY
aabbcc
Your satellite tracking list
Your tracking list is empty




NASA's NSSDC Master Catalog

Two Line Element Set (TLE):
1 25979U 99064C   19323.20644242  .00000363  00000-0  38160-4 0  9996
2 25979  98.1483 227.8422 0005132 272.5450  87.5182 14.95843105 82461
Source of the keplerian elements: AFSPC